H1 CPF 2 NER 2022 3 18 9 077 01 glonass128 H2 1106401 9128 37867 2022 3 18 0 0 0 2022 3 21 23 45 0 900 1 1 0 0 0 1 H9 10 0 59656 0.00000 0 -10676837.315 -4068756.208 -22752551.397 10 0 59656 900.00000 0 -8919479.920 -6294519.326 -23005077.081 10 0 59656 1800.00000 0 -7326890.672 -8644505.281 -22808534.037 10 0 59656 2700.00000 0 -5935817.480 -11058906.579 -22166989.099 10 0 59656 3600.00000 0 -4771726.716 -13472910.416 -21093215.835 10 0 59656 4500.00000 0 -3847924.475 -15819235.328 -19608422.833 10 0 59656 5400.00000 0 -3165207.488 -18030780.660 -17741815.526 10 0 59656 6300.00000 0 -2712055.391 -20043277.299 -15530001.872 10 0 59656 7200.00000 0 -2465353.006 -21797828.512 -13016255.328 10 0 59656 8100.00000 0 -2391608.706 -23243235.115 -10249651.196 10 0 59656 9000.00000 0 -2448614.280 -24338008.797 -7284094.637 10 0 59656 9900.00000 0 -2587473.447 -25051991.071 -4177260.657 10 0 59656 10800.00000 0 -2754911.169 -25367512.394 -989467.556 10 0 59656 11700.00000 0 -2895764.834 -25280045.500 2217493.741 10 0 59656 12600.00000 0 -2955551.484 -24798328.312 5381551.589 10 0 59656 13500.00000 0 -2883002.870 -23943953.807 8441544.065 10 0 59656 14400.00000 0 -2632462.165 -22750446.169 11338385.808 10 0 59656 15300.00000 0 -2166042.588 -21261863.414 14016189.909 10 0 59656 16200.00000 0 -1455458.514 -19530985.650 16423324.923 10 0 59656 17100.00000 0 -483453.455 -17617164.564 18513388.626 10 0 59656 18000.00000 0 755233.932 -15583922.965 20246081.733 10 0 59656 18900.00000 0 2253405.876 -13496402.793 21587966.921 10 0 59656 19800.00000 0 3991463.253 -11418765.641 22513100.389 10 0 59656 20700.00000 0 5937983.785 -9411651.501 23003525.254 10 0 59656 21600.00000 0 8050798.551 -7529798.841 23049618.272 10 0 59656 22500.00000 0 10278524.676 -5819922.642 22650283.507 10 0 59656 23400.00000 0 12562493.534 -4318936.856 21812988.787 10 0 59656 24300.00000 0 14838997.683 -3052594.034 20553643.171 10 0 59656 25200.00000 0 17041766.395 -2034598.348 18896315.981 10 0 59656 26100.00000 0 19104569.593 -1266229.395 16872800.609 10 0 59656 27000.00000 0 20963843.951 -736493.430 14522028.952 10 0 59656 27900.00000 0 22561233.005 -422797.190 11889345.108 10 0 59656 28800.00000 0 23845935.375 -292117.733 9025649.949 10 0 59656 29700.00000 0 24776762.237 -302620.714 5986431.024 10 0 59656 30600.00000 0 25323816.192 -405660.188 2830695.032 10 0 59656 31500.00000 0 25469718.766 -548076.213 -380177.106 10 0 59656 32400.00000 0 25210332.300 -674692.975 -3583630.410 10 0 59656 33300.00000 0 24554943.098 -730910.725 -6717167.157 10 0 59656 34200.00000 0 23525895.667 -665279.916 -9719583.851 10 0 59656 35100.00000 0 22157691.521 -431945.913 -12532187.835 10 0 59656 36000.00000 0 20495589.372 7142.362 -15099967.561 10 0 59656 36900.00000 0 18593765.357 680356.614 -17372691.184 10 0 59656 37800.00000 0 16513111.285 1604928.770 -19305909.825 10 0 59656 38700.00000 0 14318764.724 2785970.557 -20861843.915 10 0 59656 39600.00000 0 12077476.477 4216016.655 -22010133.714 10 0 59656 40500.00000 0 9854927.891 5875112.210 -22728438.401 10 0 59656 41400.00000 0 7713112.239 7731441.751 -23002871.617 10 0 59656 42300.00000 0 5707891.426 9742472.938 -22828265.092 10 0 59656 43200.00000 0 3886831.000 11856566.449 -22208255.926 10 0 59656 44100.00000 0 2287403.996 14014983.307 -21155196.941 10 0 59656 45000.00000 0 935637.849 16154204.026 -19689893.292 10 0 59656 45900.00000 0 -154740.937 18208461.073 -17841172.195 10 0 59656 46800.00000 0 -982631.241 20112377.398 -15645295.922 10 0 59656 47700.00000 0 -1559340.529 21803599.796 -13145231.357 10 0 59656 48600.00000 0 -1907839.578 23225316.692 -10389792.078 10 0 59656 49500.00000 0 -2061523.680 24328555.433 -7432671.176 10 0 59656 50400.00000 0 -2062535.827 25074163.952 -4331385.013 10 0 59656 51300.00000 0 -1959725.386 25434395.600 -1146149.385 10 0 59656 52200.00000 0 -1806330.472 25394032.876 2061289.533 10 0 59656 53100.00000 0 -1657483.061 24951005.380 5228846.565 10 0 59656 54000.00000 0 -1567642.551 24116478.530 8295288.555 10 0 59656 54900.00000 0 -1588065.666 22914411.402 11201402.831 10 0 59656 55800.00000 0 -1764418.347 21380603.868 13891121.726 10 0 59656 56700.00000 0 -2134628.851 19561273.787 16312583.180 10 0 59656 57600.00000 0 -2727070.820 17511223.777 18419108.914 10 0 59656 58500.00000 0 -3559151.281 15291673.375 20170083.395 10 0 59656 59400.00000 0 -4636361.887 12967845.380 21531718.744 10 0 59656 60300.00000 0 -5951832.852 10606404.679 22477692.790 10 0 59656 61200.00000 0 -7486408.735 8272853.528 22989649.416 10 0 59656 62100.00000 0 -9209244.322 6028988.715 23057552.608 10 0 59656 63000.00000 0 -11078897.922 3930523.580 22679887.709 10 0 59656 63900.00000 0 -13044879.294 2024971.433 21863705.610 10 0 59656 64800.00000 0 -15049590.954 349876.556 20624507.963 10 0 59656 65700.00000 0 -17030585.309 -1068534.587 18985973.899 10 0 59656 66600.00000 0 -18923046.583 -2216225.958 16979531.302 10 0 59656 67500.00000 0 -20662396.562 -3091711.440 14643778.359 10 0 59656 68400.00000 0 -22186917.127 -3705885.120 12023763.903 10 0 59656 69300.00000 0 -23440280.628 -4081327.918 9170138.004 10 0 59656 70200.00000 0 -24373881.875 -4251118.101 6138187.137 10 0 59656 71100.00000 0 -24948872.707 -4257194.352 2986771.010 10 0 59656 72000.00000 0 -25137811.504 -4148339.393 -222819.038 10 0 59656 72900.00000 0 -24925855.637 -3977869.084 -3428058.006 10 0 59656 73800.00000 0 -24311443.671 -3801125.255 -6566417.569 10 0 59656 74700.00000 0 -23306435.704 -3672879.757 -9576603.342 10 0 59656 75600.00000 0 -21935703.443 -3644761.848 -12399773.060 10 0 59656 76500.00000 0 -20236185.412 -3762820.627 -14980709.683 10 0 59656 77400.00000 0 -18255446.104 -4065328.814 -17268924.031 10 0 59656 78300.00000 0 -16049799.516 -4580923.984 -19219663.201 10 0 59656 79200.00000 0 -13682076.615 -5327168.772 -20794803.068 10 0 59656 80100.00000 0 -11219131.788 -6309593.276 -21963605.840 10 0 59656 81000.00000 0 -8729194.558 -7521261.824 -22703326.870 10 0 59656 81900.00000 0 -6279179.220 -8942883.353 -22999658.458 10 0 59656 82800.00000 0 -3932066.649 -10543460.890 -22847002.081 10 0 59656 83700.00000 0 -1744468.803 -12281452.293 -22248564.401 10 0 59656 84600.00000 0 235522.000 -14106392.417 -21216276.275 10 0 59656 85500.00000 0 1970109.551 -15960907.055 -19770537.789 10 0 59657 0.00000 0 3433123.110 -17783032.426 -17939796.143 10 0 59657 900.00000 0 4610847.117 -19508742.386 -15759965.338 10 0 59657 1800.00000 0 5502317.589 -21074573.710 -13273703.384 10 0 59657 2700.00000 0 6119078.999 -22420241.975 -10529559.553 10 0 59657 3600.00000 0 6484413.561 -23491135.775 -7581012.205 10 0 59657 4500.00000 0 6632079.802 -24240586.214 -4485416.377 10 0 59657 5400.00000 0 6604616.686 -24631817.541 -1302882.706 10 0 59657 6300.00000 0 6451287.397 -24639498.806 1904889.970 10 0 59657 7200.00000 0 6225751.338 -24250833.530 5075805.448 10 0 59657 8100.00000 0 5983563.482 -23466143.876 8148561.722 10 0 59657 9000.00000 0 5779606.701 -22298926.877 11063821.056 10 0 59657 9900.00000 0 5665564.573 -20775382.044 13765337.111 10 0 59657 10800.00000 0 5687539.950 -18933431.191 16201019.092 10 0 59657 11700.00000 0 5883917.873 -16821271.690 18323914.345 10 0 59657 12600.00000 0 6283561.068 -14495523.084 20093092.501 10 0 59657 13500.00000 0 6904412.376 -12019042.890 21474416.274 10 0 59657 14400.00000 0 7752561.859 -9458500.443 22441185.973 10 0 59657 15300.00000 0 8821817.464 -6881807.043 22974646.813 10 0 59657 16200.00000 0 10093797.908 -4355506.269 23064350.300 10 0 59657 17100.00000 0 11538545.449 -1942229.771 22708363.086 10 0 59657 18000.00000 0 13115635.238 301678.415 21913318.919 10 0 59657 18900.00000 0 14775737.823 2328272.639 20694311.655 10 0 59657 19800.00000 0 16462572.776 4099765.313 19074629.659 10 0 59657 20700.00000 0 18115174.978 5589862.925 17085334.556 10 0 59657 21600.00000 0 19670381.663 6784622.704 14764689.898 10 0 59657 22500.00000 0 21065438.346 7682793.413 12157448.133 10 0 59657 23400.00000 0 22240615.721 8295624.683 9314007.189 10 0 59657 24300.00000 0 23141728.009 8646151.362 6289450.872 10 0 59657 25200.00000 0 23722446.190 8767981.424 3142490.050 10 0 59657 26100.00000 0 23946307.032 8703637.242 -65675.623 10 0 59657 27000.00000 0 23788330.841 8502519.523 -3272553.437 10 0 59657 27900.00000 0 23236176.740 8218580.017 -6415586.940 10 0 59657 28800.00000 0 22290783.639 7907802.299 -9433393.408 10 0 59657 29700.00000 0 20966466.940 7625598.943 -12266983.532 10 0 59657 30600.00000 0 19290464.399 7424237.646 -14860937.278 10 0 59657 31500.00000 0 17301948.613 7350408.095 -17164510.520 10 0 59657 32400.00000 0 15050546.759 7443035.532 -19132648.589 10 0 59657 33300.00000 0 12594429.796 7731436.405 -20726884.927 10 0 59657 34200.00000 0 9998052.120 8233896.562 -21916105.659 10 0 59657 35100.00000 0 7329637.744 8956733.916 -22677164.132 10 0 59657 36000.00000 0 4658519.820 9893886.320 -22995332.933 10 0 59657 36900.00000 0 2052446.445 11027042.354 -22864584.655 10 0 59657 37800.00000 0 -425033.398 12326309.114 -22287696.577 10 0 59657 38700.00000 0 -2716993.913 13751387.889 -21276178.273 10 0 59657 39600.00000 0 -4775265.344 15253206.717 -19850025.006 10 0 59657 40500.00000 0 -6562187.501 16775939.433 -18037303.391 10 0 59657 41400.00000 0 -8051912.578 18259324.625 -15873579.155 10 0 59657 42300.00000 0 -9231205.319 19641185.429 -13401200.035 10 0 59657 43200.00000 0 -10099710.412 20860043.174 -10668449.499 10 0 59657 44100.00000 0 -10669679.536 21857714.479 -7728589.318 10 0 59657 45000.00000 0 -10965173.284 22581782.670 -4638811.049 10 0 59657 45900.00000 0 -11020775.109 22987840.410 -1459117.754 10 0 59657 46800.00000 0 -10879874.486 23041410.558 1748841.688 10 0 59657 47700.00000 0 -10592594.001 22719466.280 4922962.833 10 0 59657 48600.00000 0 -10213449.233 22011488.532 8001877.726 10 0 59657 49500.00000 0 -9798840.698 20920018.464 10926126.537 10 0 59657 50400.00000 0 -9404483.250 19460683.259 13639287.254 10 0 59657 51300.00000 0 -9082880.246 17661695.520 16089043.332 10 0 59657 52200.00000 0 -8880947.211 15562847.576 18228170.657 10 0 59657 53100.00000 0 -8837883.135 13214042.450 20015426.824 10 0 59657 54000.00000 0 -8983377.051 10673421.543 21416327.769 10 0 59657 54900.00000 0 -9336223.706 8005165.013 22403798.691 10 0 59657 55800.00000 0 -9903405.488 5277053.824 22958688.254 10 0 59657 56700.00000 0 -10679678.984 2557891.665 23070137.249 10 0 59657 57600.00000 0 -11647684.247 -85109.390 22735794.984 10 0 59657 58500.00000 0 -12778573.819 -2588873.944 21961878.940 10 0 59657 59400.00000 0 -14033137.556 -4896836.100 20763075.514 10 0 59657 60300.00000 0 -15363379.070 -6961043.499 19162282.095 10 0 59657 61200.00000 0 -16714480.827 -8743906.246 17190193.267 10 0 59657 62100.00000 0 -18027078.577 -10219518.347 14884736.618 10 0 59657 63000.00000 0 -19239752.224 -11374496.139 12290366.354 10 0 59657 63900.00000 0 -20291630.324 -12208297.554 9457225.959 10 0 59657 64800.00000 0 -21124999.544 -12733007.423 6440193.881 10 0 59657 65700.00000 0 -21687809.043 -12972596.190 3297829.144 10 0 59657 66600.00000 0 -21935962.952 -12961681.688 91236.480 10 0 59657 67500.00000 0 -21835302.105 -12743845.138 -3117127.114 10 0 59657 68400.00000 0 -21363188.532 -12369572.004 -6264680.589 10 0 59657 69300.00000 0 -20509622.632 -11893905.068 -9289956.485 10 0 59657 70200.00000 0 -19277842.619 -11373910.166 -12133822.038 10 0 59657 71100.00000 0 -17684377.996 -10866063.721 -14740657.734 10 0 59657 72000.00000 0 -15758552.502 -10423675.057 -17059467.838 10 0 59657 72900.00000 0 -13541455.865 -10094455.371 -19044898.949 10 0 59657 73800.00000 0 -11084426.855 -9918338.910 -20658144.701 10 0 59657 74700.00000 0 -8447111.554 -9925651.004 -21867717.230 10 0 59657 75600.00000 0 -5695179.000 -10135702.314 -22650069.356 10 0 59657 76500.00000 0 -2897791.158 -10555869.937 -22990054.787 10 0 59657 77400.00000 0 -124934.568 -11181204.639 -22881217.422 10 0 59657 78300.00000 0 2555273.517 -11994580.472 -22325904.744 10 0 59657 79200.00000 0 5079191.038 -12967379.470 -21335204.091 10 0 59657 80100.00000 0 7390059.886 -14060681.014 -19928704.494 10 0 59657 81000.00000 0 9440117.414 -15226903.858 -18134090.349 10 0 59657 81900.00000 0 11192323.859 -16411829.689 -15986576.637 10 0 59657 82800.00000 0 12621635.527 -17556921.031 -13528198.534 10 0 59657 83700.00000 0 13715773.410 -18601834.403 -10806971.015 10 0 59657 84600.00000 0 14475458.474 -19487021.790 -7875936.383 10 0 59657 85500.00000 0 14914107.366 -20156310.435 -4792119.672 10 0 59658 0.00000 0 15057005.042 -20559352.550 -1615413.540 10 0 59658 900.00000 0 14939992.496 -20653842.773 1592586.801 10 0 59658 1800.00000 0 14607727.417 -20407410.963 4769771.435 10 0 59658 2700.00000 0 14111593.328 -19799113.125 7854709.376 10 0 59658 3600.00000 0 13507346.076 -18820458.988 10787821.396 10 0 59658 4500.00000 0 12852597.112 -17475935.050 13512512.231 10 0 59658 5400.00000 0 12204238.813 -15783002.383 15976241.686 10 0 59658 6300.00000 0 11615918.781 -13771569.917 18131515.934 10 0 59658 7200.00000 0 11135667.458 -11482965.184 19936781.930 10 0 59658 8100.00000 0 10803776.679 -8968444.518 21357209.843 10 0 59658 9000.00000 0 10651016.300 -6287302.998 22365350.401 10 0 59658 9900.00000 0 10697262.152 -3504660.357 22941655.997 10 0 59658 10800.00000 0 10950591.998 -689011.839 23074856.634 10 0 59658 11700.00000 0 11406887.280 2090357.635 22762183.896 10 0 59658 12600.00000 0 12049958.192 4765991.847 22009438.324 10 0 59658 13500.00000 0 12852188.465 7274808.597 20830897.946 10 0 59658 14400.00000 0 13775675.189 9560468.692 19249068.044 10 0 59658 15300.00000 0 14773818.640 11575471.787 17294274.859 10 0 59658 16200.00000 0 15793298.228 13282892.715 15004108.537 10 0 59658 17100.00000 0 16776354.278 14657685.938 12422723.429 10 0 59658 18000.00000 0 17663281.701 15687502.756 9600006.791 10 0 59658 18900.00000 0 18395031.923 16372985.746 6590629.793 10 0 59658 19800.00000 0 18915813.638 16727526.396 3452997.543 10 0 59658 20700.00000 0 19175581.916 16776494.340 248117.665 10 0 59658 21600.00000 0 19132308.808 16555969.255 -2961590.820 10 0 59658 22500.00000 0 18753936.913 16111027.943 -6113524.559 10 0 59658 23400.00000 0 18019930.272 15493658.721 -9146133.606 10 0 59658 24300.00000 0 16922353.651 14760391.861 -12000143.910 10 0 59658 25200.00000 0 15466431.388 13969747.644 -14619738.511 10 0 59658 26100.00000 0 13670559.397 13179611.961 -16953671.938 10 0 59658 27000.00000 0 11565767.607 12444652.917 -18956293.785 10 0 59658 27900.00000 0 9194654.064 11813890.239 -20588459.455 10 0 59658 28800.00000 0 6609835.009 11328522.663 -21818308.552 10 0 59658 29700.00000 0 3871976.199 11020107.119 -22621894.698 10 0 59658 30600.00000 0 1047488.784 10909167.968 -22983653.895 10 0 59658 31500.00000 0 -1794012.491 11004295.605 -22896702.327 10 0 59658 32400.00000 0 -4582381.257 11301772.269 -22362958.393 10 0 59658 33300.00000 0 -7249628.879 11785739.835 -21393087.577 10 0 59658 34200.00000 0 -9732518.197 12428900.934 -20006272.682 10 0 59658 35100.00000 0 -11974953.329 13193721.738 -18229815.493 10 0 59658 36000.00000 0 -13930066.556 14034083.431 -16098579.456 10 0 59658 36900.00000 0 -15561916.577 14897310.450 -13654286.047 10 0 59658 37800.00000 0 -16846729.537 15726487.934 -10944680.321 10 0 59658 38700.00000 0 -17773633.878 16462969.071 -8022583.439 10 0 59658 39600.00000 0 -18344861.600 17048965.605 -4944852.057 10 0 59658 40500.00000 0 -18575411.102 17430111.932 -1771265.840 10 0 59658 41400.00000 0 -18492189.223 17557894.991 1436634.669 10 0 59658 42300.00000 0 -18132671.565 17391848.516 4616736.941 10 0 59658 43200.00000 0 -17543139.887 16901420.595 7707549.368 10 0 59658 44100.00000 0 -16776572.252 16067437.548 10649375.865 10 0 59658 45000.00000 0 -15890275.378 14883104.267 13385450.557 10 0 59658 45900.00000 0 -14943358.474 13354500.342 15863012.306 10 0 59658 46800.00000 0 -13994153.663 11500552.068 18034300.300 10 0 59658 47700.00000 0 -13097689.618 9352481.680 19857453.515 10 0 59658 48600.00000 0 -12303322.329 6952756.188 21297298.898 10 0 59658 49500.00000 0 -11652620.133 4353578.122 22326015.057 10 0 59658 50400.00000 0 -11177589.660 1614978.809 22923660.191 10 0 59658 51300.00000 0 -10899315.439 -1197409.455 23078555.267 10 0 59658 52200.00000 0 -10827069.327 -4014813.153 22787515.501 10 0 59658 53100.00000 0 -10957927.022 -6767910.428 22055925.414 10 0 59658 54000.00000 0 -11276908.595 -9389452.796 20897655.103 10 0 59658 54900.00000 0 -11757638.754 -11816809.647 19334817.689 10 0 59658 55800.00000 0 -12363501.407 -13994331.832 17397370.493 10 0 59658 56700.00000 0 -13049242.569 -15875437.338 15122565.160 10 0 59658 57600.00000 0 -13762956.822 -17424332.472 12554254.652 10 0 59658 58500.00000 0 -14448375.955 -18617296.189 9742068.062 10 0 59658 59400.00000 0 -15047364.927 -19443472.606 6740466.976 10 0 59658 60300.00000 0 -15502520.622 -19905136.806 3607699.998 10 0 59658 61200.00000 0 -15759763.340 -20017420.808 404674.797 10 0 59658 62100.00000 0 -15770810.236 -19807509.444 -2806230.626 10 0 59658 63000.00000 0 -15495423.866 -19313338.613 -5962393.826 10 0 59658 63900.00000 0 -14903337.872 -18581850.042 -9002185.712 10 0 59658 64800.00000 0 -13975774.977 -17666876.251 -11866194.359 10 0 59658 65700.00000 0 -12706489.742 -16626745.850 -14498408.776 10 0 59658 66600.00000 0 -11102288.830 -15521711.925 -16847337.084 10 0 59658 67500.00000 0 -9183004.162 -14411314.224 -18867035.005 10 0 59658 68400.00000 0 -6980918.109 -13351788.936 -20518022.508 10 0 59658 69300.00000 0 -4539663.789 -12393637.825 -21768069.038 10 0 59658 70200.00000 0 -1912646.345 -11579461.380 -22592830.864 10 0 59658 71100.00000 0 838948.256 -10942148.886 -22976327.551 10 0 59658 72000.00000 0 3648472.478 -10503502.563 -22911248.258 10 0 59658 72900.00000 0 6446366.355 -10273353.705 -22399082.416 10 0 59658 73800.00000 0 9162828.779 -10249207.174 -21450073.267 10 0 59658 74700.00000 0 11730498.293 -10416427.655 -20082996.510 10 0 59658 75600.00000 0 14087031.043 -10748957.580 -18324770.023 10 0 59658 76500.00000 0 16177468.422 -11210533.911 -16209904.003 10 0 59658 77400.00000 0 17956296.396 -11756349.820 -13779804.123 10 0 59658 78300.00000 0 19389112.217 -12335088.611 -11081943.025 10 0 59658 79200.00000 0 20453831.253 -12891241.946 -8168917.879 10 0 59658 80100.00000 0 21141386.357 -13367612.888 -5097413.809 10 0 59658 81000.00000 0 21455893.831 -13707897.220 -1927094.387 10 0 59658 81900.00000 0 21414282.410 -13859233.847 1280558.598 10 0 59658 82800.00000 0 21045403.970 -13774617.161 4463433.243 10 0 59658 83700.00000 0 20388666.031 -13415070.669 7559980.733 10 0 59658 84600.00000 0 19492245.433 -12751491.687 10510391.319 10 0 59658 85500.00000 0 18410959.342 -11766091.066 13257731.395 10 0 59659 0.00000 0 17203883.288 -10453368.968 15749021.181 10 0 59659 900.00000 0 15931814.811 -8820586.042 17936235.423 10 0 59659 1800.00000 0 14654689.279 -6887712.604 19777206.548 10 0 59659 2700.00000 0 13429051.984 -4686855.257 21236419.529 10 0 59659 3600.00000 0 12305691.626 -2261185.446 22285681.653 10 0 59659 4500.00000 0 11327531.275 336587.991 22904657.315 10 0 59659 5400.00000 0 10527863.107 3046141.316 23081258.416 10 0 59659 6300.00000 0 9928999.182 5801776.760 22811883.369 10 0 59659 7200.00000 0 9541393.993 8534892.080 22101499.858 10 0 59659 8100.00000 0 9363275.497 11176579.746 20963568.877 10 0 59659 9000.00000 0 9380800.988 13660250.931 19419809.888 10 0 59659 9900.00000 0 9568732.844 15924177.648 17499809.527 10 0 59659 10800.00000 0 9891607.883 17913849.034 15240478.930 10 0 59659 11700.00000 0 10305353.482 19584044.352 12685367.465 10 0 59659 12600.00000 0 10759284.650 20900535.952 9883843.689 10 0 59659 13500.00000 0 11198399.649 21841350.001 6890157.107 10 0 59659 14400.00000 0 11565878.359 22397530.514 3762397.222 10 0 59659 15300.00000 0 11805678.019 22573372.497 561369.121 10 0 59659 16200.00000 0 11865115.746 22386112.350 -2650592.831 10 0 59659 17100.00000 0 11697326.779 21865086.679 -5810849.612 10 0 59659 18000.00000 0 11263491.851 21050393.614 -8857695.348 10 0 59659 18900.00000 0 10534736.217 19991112.502 -11731582.381 10 0 59659 19800.00000 0 9493616.578 18743157.268 -14376307.589 10 0 59659 20700.00000 0 8135129.686 17366855.048 -16740134.319 10 0 59659 21600.00000 0 6467196.956 15924353.940 -18776825.799 10 0 59659 22500.00000 0 4510602.225 14476971.291 -20446567.738 10 0 59659 23400.00000 0 2298383.620 13082596.639 -21716760.392 10 0 59659 24300.00000 0 -125295.769 11793260.842 -22562663.464 10 0 59659 25200.00000 0 -2706751.080 10652975.480 -22967880.687 10 0 59659 26100.00000 0 -5384784.893 9695934.527 -22924674.563 10 0 59659 27000.00000 0 -8093017.330 8945154.173 -22434105.665 10 0 59659 27900.00000 0 -10762438.377 8411607.360 -21505994.772 10 0 59659 28800.00000 0 -13324074.515 8093887.961 -20158709.916 10 0 59659 29700.00000 0 -15711657.431 7978416.494 -18418784.137 10 0 59659 30600.00000 0 -17864183.040 8040175.988 -16320373.137 10 0 59659 31500.00000 0 -19728254.169 8243944.020 -13904565.269 10 0 59659 32400.00000 0 -21260110.121 8545965.976 -11218559.051 10 0 59659 33300.00000 0 -22427260.077 8895996.256 -8314725.826 10 0 59659 34200.00000 0 -23209654.369 9239619.035 -5249577.277 10 0 59659 35100.00000 0 -23600347.513 9520749.025 -2082658.916 10 0 59659 36000.00000 0 -23605628.346 9684205.818 1124608.230 10 0 59659 36900.00000 0 -23244614.897 9678253.032 4310114.955 10 0 59659 37800.00000 0 -22548333.782 9456995.709 7412257.384 10 0 59659 38700.00000 0 -21558324.972 8982535.973 10371114.333 10 0 59659 39600.00000 0 -20324831.935 8226797.573 13129586.781 10 0 59659 40500.00000 0 -18904653.656 7172944.013 15634479.078 10 0 59659 41400.00000 0 -17358748.196 5816331.933 17837502.975 10 0 59659 42300.00000 0 -15749687.037 4164960.585 19696187.092 10 0 59659 43200.00000 0 -14139064.856 2239398.629 21174676.522 10 0 59659 44100.00000 0 -12584970.665 72190.609 22244409.117 10 0 59659 45000.00000 0 -11139623.532 -2293233.664 22884657.050 10 0 59659 45900.00000 0 -9847269.147 -4804103.786 23082924.408 10 0 59659 46800.00000 0 -8742423.013 -7400246.239 22835193.678 10 0 59659 47700.00000 0 -7848532.231 -10016337.461 22146016.198 10 0 59659 48600.00000 0 -7177111.062 -12584382.445 21028443.940 10 0 59659 49500.00000 0 -6727386.564 -15036319.182 19503802.383 10 0 59659 50400.00000 0 -6486470.065 -17306643.416 17601306.747 10 0 59659 51300.00000 0 -6430048.814 -19334946.585 15357526.535 10 0 59659 52200.00000 0 -6523570.678 -21068262.370 12815706.039 10 0 59659 53100.00000 0 -6723874.151 -22463124.021 10024951.483 10 0 59659 54000.00000 0 -6981196.776 -23487245.732 7039298.225 10 0 59659 54900.00000 0 -7241478.592 -24120756.101 3916674.386 10 0 59659 55800.00000 0 -7448863.803 -24356929.748 717780.009 10 0 59659 56700.00000 0 -7548294.557 -24202384.053 -2495096.783 10 0 59659 57600.00000 0 -7488085.680 -23676730.430 -5659303.136 10 0 59659 58500.00000 0 -7222369.210 -22811692.915 -8713059.243 10 0 59659 59400.00000 0 -6713302.320 -21649730.008 -11596684.657 10 0 59659 60300.00000 0 -5932941.834 -20242217.344 -14253787.099 10 0 59659 61200.00000 0 -4864702.636 -18647268.246 -16632388.089 10 0 59659 62100.00000 0 -3504335.102 -16927285.162 -18685961.179 10 0 59659 63000.00000 0 -1860377.435 -15146346.834 -20374360.403 10 0 59659 63900.00000 0 45938.153 -13367543.349 -21664619.072 10 0 59659 64800.00000 0 2181322.875 -11650373.254 -22531602.166 10 0 59659 65700.00000 0 4501586.113 -10048314.009 -22958498.954 10 0 59659 66600.00000 0 6953258.758 -8606669.188 -22937146.173 10 0 59659 67500.00000 0 9475616.297 -7360783.359 -22468175.953 10 0 59659 68400.00000 0 12003015.812 -6334699.254 -21560986.570 10 0 59659 69300.00000 0 14467447.751 -5540312.408 -20233537.924 10 0 59659 70200.00000 0 16801194.671 -4977056.700 -18511977.339 10 0 59659 71100.00000 0 18939485.018 -4632131.244 -16430104.730 10 0 59659 72000.00000 0 20823030.743 -4481255.961 -14028689.401 10 0 59659 72900.00000 0 22400343.107 -4489920.675 -11354653.592 10 0 59659 73800.00000 0 23629730.983 -4615071.865 -8460140.230 10 0 59659 74700.00000 0 24480899.836 -4807163.152 -5401484.584 10 0 59659 75600.00000 0 24936086.822 -5012480.734 -2238110.834 10 0 59659 76500.00000 0 24990687.251 -5175644.095 968624.247 10 0 59659 77400.00000 0 24653348.999 -5242175.763 4156617.703 10 0 59659 78300.00000 0 23945533.687 -5161031.677 7264214.122 10 0 59659 79200.00000 0 22900565.368 -4886986.169 10231384.235 10 0 59659 80100.00000 0 21562208.273 -4382772.258 13000866.686 10 0 59659 81000.00000 0 19982834.159 -3620888.573 15519252.502 10 0 59659 81900.00000 0 18221255.929 -2584998.304 17737993.255 10 0 59659 82800.00000 0 16340317.351 -1270862.591 19614315.504 10 0 59659 83700.00000 0 14404337.917 313230.291 21112026.030 10 0 59659 84600.00000 0 12476517.288 2146558.146 22202194.406 10 0 59659 85500.00000 0 10616405.045 4196577.589 22863701.304 99